Warsaw, IN

4:19 AM EDT on May 25, 2017 (GMT -0400)
Warsaw Municipal

Weather History for KASW - February, 2013

Change the Weather History Date:

Tuesday, February 12, 2013

  Actual Average Record
Temperature  
Mean Temperature 30 °F -  
Max Temperature 33 °F 33 °F 60 °F (1984)
Min Temperature 28 °F 14 °F -14 °F (2014)
Degree Days  
Heating Degree Days 34    
Moisture  
Dew Point 23 °F    
Average Humidity 73    
Maximum Humidity 80    
Minimum Humidity 64    
Precipitation  
Precipitation 0.00 in - - ()
Sea Level Pressure  
Sea Level Pressure 30.02 in    
Wind  
Wind Speed 11 mph (West)    
Max Wind Speed 17 mph    
Max Gust Speed 25 mph    
Visibility 10 miles    
Events      
Averages and records for this station are not official NWS values.
T = Trace of Precipitation, MM = Missing Value Source: NWS Daily Summary

Daily Weather History Graph

Daily Weather History Graph

Search for Another Location

Airport or City:

Trip Planner

Search our weather history database for the weather conditions in past years. The results will help you decide how hot, cold, wet, or windy it might be!

Date:

Astronomy

Feb. 12, 2013 Rise Set
Actual Time 7:41 AM EST 6:13 PM EST
Civil Twilight 7:13 AM EST 6:42 PM EST
Nautical Twilight 6:40 AM EST 7:14 PM EST
Astronomical Twilight 6:08 AM EST 7:47 PM EST
Moon 8:36 AM EST (2/12) 9:16 PM EST (2/12)
Length of Visible Light 11h 29m
Length of Day
10h 32m
Waxing Crescent, 7% of the Moon is Illuminated
Feb 12
Waxing Crescent
Feb 17
First Quarter
Feb 25
Full
Mar 4
Last Quarter
Mar 11
New

Hourly Weather History & Observations

Time (EST) Temp. Windchill Dew Point Humidity Pressure Visibility Wind Dir Wind Speed Gust Speed Precip Events Conditions
12:15 AM 30.2 °F 19.8 °F 23.0 °F 75% 29.99 in 10.0 mi West 13.8 mph - N/A   Overcast
12:35 AM 30.2 °F 18.5 °F 23.0 °F 75% 29.99 in 10.0 mi West 17.3 mph 25.3 mph N/A   Overcast
12:55 AM 30.2 °F 18.9 °F 23.0 °F 75% 30.00 in 10.0 mi West 16.1 mph 21.9 mph N/A   Overcast
1:15 AM 30.2 °F 20.2 °F 23.0 °F 75% 30.00 in 10.0 mi West 12.7 mph 20.7 mph N/A   Overcast
1:35 AM 30.2 °F 20.2 °F 23.0 °F 75% 30.01 in 10.0 mi West 12.7 mph - N/A   Overcast
1:55 AM 30.2 °F 19.8 °F 23.0 °F 75% 30.01 in 10.0 mi West 13.8 mph 19.6 mph N/A   Overcast
2:15 AM 30.2 °F 19.3 °F 23.0 °F 75% 30.01 in 10.0 mi West 15.0 mph 21.9 mph N/A   Overcast
2:35 AM 30.2 °F 18.9 °F 21.2 °F 69% 30.02 in 10.0 mi West 16.1 mph 19.6 mph N/A   Overcast
2:55 AM 30.2 °F 20.8 °F 21.2 °F 69% 30.03 in 10.0 mi West 11.5 mph - N/A   Overcast
3:15 AM 30.2 °F 20.8 °F 23.0 °F 75% 30.04 in 10.0 mi West 11.5 mph - N/A   Overcast
3:35 AM 30.2 °F 20.2 °F 23.0 °F 75% 30.04 in 10.0 mi West 12.7 mph 18.4 mph N/A   Overcast
3:55 AM 30.2 °F 19.8 °F 21.2 °F 69% 30.05 in 10.0 mi West 13.8 mph - N/A   Overcast
4:15 AM 30.2 °F 20.8 °F 23.0 °F 75% 30.05 in 10.0 mi West 11.5 mph - N/A   Overcast
4:35 AM 30.2 °F 19.3 °F 21.2 °F 69% 30.05 in 10.0 mi West 15.0 mph - N/A   Overcast
4:55 AM 30.2 °F 18.9 °F 21.2 °F 69% 30.06 in 10.0 mi WNW 16.1 mph 19.6 mph N/A   Overcast
5:15 AM 30.2 °F 18.5 °F 21.2 °F 69% 30.06 in 10.0 mi WNW 17.3 mph - N/A   Overcast
5:35 AM 28.4 °F 17.5 °F 21.2 °F 74% 30.07 in 10.0 mi WNW 13.8 mph - N/A   Overcast
5:55 AM 28.4 °F 19.7 °F 21.2 °F 74% 30.07 in 10.0 mi WNW 9.2 mph 18.4 mph N/A   Overcast
6:15 AM 28.4 °F 19.7 °F 23.0 °F 80% 30.07 in 10.0 mi WNW 9.2 mph - N/A   Overcast
6:35 AM 28.4 °F 20.4 °F 23.0 °F 80% 30.07 in 10.0 mi WNW 8.1 mph - N/A   Overcast
6:55 AM 28.4 °F 19.7 °F 23.0 °F 80% 30.07 in 10.0 mi West 9.2 mph - N/A   Overcast
7:15 AM 28.4 °F 20.4 °F 23.0 °F 80% 30.07 in 10.0 mi West 8.1 mph - N/A   Overcast
7:35 AM 28.4 °F 20.4 °F 21.2 °F 74% 30.07 in 10.0 mi West 8.1 mph - N/A   Overcast
7:55 AM 28.4 °F 21.2 °F 21.2 °F 74% 30.07 in 10.0 mi WSW 6.9 mph - N/A   Overcast
8:15 AM 28.4 °F 20.4 °F 21.2 °F 74% 30.08 in 10.0 mi WSW 8.1 mph - N/A   Overcast
8:35 AM 28.4 °F 20.4 °F 21.2 °F 74% 30.09 in 10.0 mi West 8.1 mph - N/A   Overcast
8:55 AM 28.4 °F 19.7 °F 21.2 °F 74% 30.09 in 10.0 mi West 9.2 mph - N/A   Overcast
9:15 AM 28.4 °F 20.4 °F 21.2 °F 74% 30.09 in 10.0 mi West 8.1 mph - N/A   Overcast
9:35 AM 28.4 °F 19.7 °F 21.2 °F 74% 30.10 in 10.0 mi West 9.2 mph - N/A   Overcast
9:55 AM 30.2 °F 24.3 °F 21.2 °F 69% 30.09 in 10.0 mi West 5.8 mph - N/A   Overcast
10:15 AM 30.2 °F 21.3 °F 21.2 °F 69% 30.09 in 10.0 mi West 10.4 mph - N/A   Overcast
10:35 AM 30.2 °F 23.4 °F 21.2 °F 69% 30.09 in 10.0 mi West 6.9 mph - N/A   Overcast
10:55 AM 30.2 °F 22.6 °F 21.2 °F 69% 30.09 in 10.0 mi WSW 8.1 mph - N/A   Mostly Cloudy
11:15 AM 32.0 °F 24.8 °F 21.2 °F 64% 30.08 in 10.0 mi West 8.1 mph - N/A   Mostly Cloudy
11:35 AM 32.0 °F 24.2 °F 23.0 °F 69% 30.08 in 10.0 mi SW 9.2 mph - N/A   Mostly Cloudy
11:55 AM 32.0 °F 23.0 °F 23.0 °F 69% 30.09 in 10.0 mi WSW 11.5 mph - N/A   Overcast
12:15 PM 32.0 °F 24.2 °F 23.0 °F 69% 30.07 in 10.0 mi West 9.2 mph - N/A   Mostly Cloudy
12:35 PM 32.0 °F 25.6 °F 23.0 °F 69% 30.06 in 10.0 mi SW 6.9 mph - N/A   Mostly Cloudy
12:55 PM 32.0 °F 24.2 °F 23.0 °F 69% 30.04 in 10.0 mi West 9.2 mph - N/A   Overcast
1:15 PM 32.0 °F 27.5 °F 23.0 °F 69% 30.00 in 10.0 mi West 4.6 mph - N/A   Mostly Cloudy
1:35 PM 32.0 °F 26.4 °F 23.0 °F 69% 30.00 in 10.0 mi WSW 5.8 mph - N/A   Mostly Cloudy
1:55 PM 32.0 °F 24.2 °F 23.0 °F 69% 30.00 in 10.0 mi WSW 9.2 mph - N/A   Mostly Cloudy
2:15 PM 32.0 °F 23.6 °F 23.0 °F 69% 30.00 in 10.0 mi WNW 10.4 mph - N/A   Mostly Cloudy
2:35 PM 33.8 °F 26.4 °F 23.0 °F 65% 30.00 in 10.0 mi West 9.2 mph - N/A   Mostly Cloudy
2:55 PM 33.8 °F 27.0 °F 23.0 °F 65% 30.00 in 10.0 mi WSW 8.1 mph - N/A   Mostly Cloudy
3:15 PM 33.8 °F 25.3 °F 23.0 °F 65% 30.01 in 10.0 mi WSW 11.5 mph - N/A   Overcast
3:35 PM 33.8 °F 25.3 °F 24.8 °F 70% 30.01 in 10.0 mi West 11.5 mph - N/A   Overcast
3:55 PM 32.0 °F 23.0 °F 24.8 °F 75% 30.02 in 10.0 mi WSW 11.5 mph - N/A   Overcast
4:15 PM 32.0 °F 23.6 °F 24.8 °F 75% 30.01 in 10.0 mi SW 10.4 mph - N/A   Overcast
4:35 PM 32.0 °F 24.2 °F 24.8 °F 75% 30.00 in 10.0 mi WSW 9.2 mph - N/A   Overcast
4:55 PM 32.0 °F 22.5 °F 23.0 °F 69% 30.00 in 10.0 mi WSW 12.7 mph 17.3 mph N/A   Overcast
5:15 PM 32.0 °F 24.2 °F 23.0 °F 69% 30.00 in 10.0 mi SW 9.2 mph - N/A   Overcast
5:35 PM 32.0 °F 24.2 °F 23.0 °F 69% 30.00 in 10.0 mi WSW 9.2 mph - N/A   Overcast
5:55 PM 30.2 °F 21.3 °F 23.0 °F 75% 30.00 in 10.0 mi West 10.4 mph - N/A   Overcast
6:15 PM 30.2 °F 22.6 °F 23.0 °F 75% 29.99 in 10.0 mi WSW 8.1 mph - N/A   Overcast
6:35 PM 30.2 °F 21.9 °F 23.0 °F 75% 29.99 in 10.0 mi WNW 9.2 mph - N/A   Overcast
6:55 PM 30.2 °F 21.9 °F 23.0 °F 75% 29.99 in 10.0 mi West 9.2 mph - N/A   Overcast
7:15 PM 30.2 °F 21.9 °F 23.0 °F 75% 29.99 in 10.0 mi WSW 9.2 mph - N/A   Overcast
7:35 PM 30.2 °F 24.3 °F 23.0 °F 75% 29.98 in 10.0 mi West 5.8 mph - N/A   Overcast
7:55 PM 30.2 °F 23.4 °F 23.0 °F 75% 29.99 in 10.0 mi West 6.9 mph - N/A   Overcast
8:15 PM 30.2 °F 23.4 °F 23.0 °F 75% 29.98 in 10.0 mi West 6.9 mph - N/A   Overcast
8:35 PM 30.2 °F 23.4 °F 23.0 °F 75% 29.97 in 10.0 mi WSW 6.9 mph - N/A   Overcast
9:15 PM 30.2 °F 24.3 °F 23.0 °F 75% 29.97 in 10.0 mi WNW 5.8 mph - N/A   Overcast
9:35 PM 30.2 °F 22.6 °F 23.0 °F 75% 29.96 in 10.0 mi West 8.1 mph - N/A   Overcast
9:55 PM 28.4 °F 20.4 °F 23.0 °F 80% 29.96 in 10.0 mi WNW 8.1 mph - N/A   Overcast
10:15 PM 28.4 °F 22.2 °F 23.0 °F 80% 29.95 in 10.0 mi NW 5.8 mph - N/A   Overcast
10:35 PM 28.4 °F 23.3 °F 23.0 °F 80% 29.95 in 10.0 mi West 4.6 mph - N/A   Overcast
10:55 PM 28.4 °F - 23.0 °F 80% 29.95 in 10.0 mi Calm Calm - N/A   Overcast
11:15 PM 28.4 °F 23.3 °F 23.0 °F 80% 29.95 in 10.0 mi WNW 4.6 mph - N/A   Overcast
11:35 PM 28.4 °F 23.3 °F 23.0 °F 80% 29.95 in 10.0 mi NW 4.6 mph - N/A   Overcast
11:55 PM 28.4 °F 22.2 °F 23.0 °F 80% 29.95 in 10.0 mi West 5.8 mph - N/A   Overcast